TimeAKST,TemperatureF,Dew PointF,Humidity,Sea Level PressureIn,VisibilityMPH,Wind Direction,Wind SpeedMPH,Gust SpeedMPH,PrecipitationIn,Events,Conditions,WindDirDegrees,DateUTC
12:53 AM,33.1,30.9,92,29.31,7.0,Calm,Calm,-,N/A,,Overcast,0,2013-01-06 09:53:00
1:05 AM,33.8,30.2,87,29.31,7.0,Calm,Calm,-,N/A,,Overcast,0,2013-01-06 10:05:00
1:53 AM,34.0,33.1,96,29.31,10.0,South,3.5,-,N/A,,Overcast,190,2013-01-06 10:53:00
2:37 AM,33.8,30.2,87,29.30,2.0,Calm,Calm,-,N/A,,Overcast,0,2013-01-06 11:37:00
2:48 AM,33.8,30.2,87,29.30,4.0,Calm,Calm,-,N/A,,Scattered Clouds,0,2013-01-06 11:48:00
2:51 AM,32.0,30.2,93,29.30,1.8,Calm,Calm,-,N/A,,Scattered Clouds,0,2013-01-06 11:51:00
2:53 AM,30.9,30.0,96,29.31,1.2,Calm,Calm,-,N/A,,Scattered Clouds,0,2013-01-06 11:53:00
3:02 AM,30.2,28.4,93,29.30,0.5,Calm,Calm,-,N/A,Fog,Light Freezing Fog,0,2013-01-06 12:02:00
3:10 AM,30.2,28.4,93,29.30,0.5,Calm,Calm,-,N/A,Fog,Light Freezing Fog,0,2013-01-06 12:10:00
3:18 AM,30.2,28.4,93,29.30,0.5,NNE,5.8,-,N/A,Fog,Light Freezing Fog,20,2013-01-06 12:18:00
3:23 AM,32.0,30.2,93,29.30,1.0,NNE,4.6,-,N/A,,Overcast,30,2013-01-06 12:23:00
3:28 AM,32.0,30.2,93,29.30,4.0,NE,5.8,-,N/A,,Overcast,40,2013-01-06 12:28:00
3:53 AM,33.1,30.9,92,29.29,7.0,NNE,4.6,-,N/A,,Overcast,30,2013-01-06 12:53:00
4:03 AM,33.8,30.2,87,29.29,1.5,NE,3.5,-,N/A,,Overcast,50,2013-01-06 13:03:00
4:06 AM,33.8,30.2,87,29.28,0.8,Calm,Calm,-,N/A,,Mist,0,2013-01-06 13:06:00
4:53 AM,32.0,30.9,96,29.28,0.5,North,3.5,-,N/A,Fog,Fog,10,2013-01-06 13:53:00
5:02 AM,32.0,30.2,93,29.27,3.0,East,3.5,-,N/A,,Mostly Cloudy,80,2013-01-06 14:02:00
5:44 AM,33.8,32.0,93,29.27,10.0,East,11.5,-,N/A,,Overcast,80,2013-01-06 14:44:00
5:53 AM,33.1,30.9,92,29.28,10.0,East,9.2,-,N/A,,Overcast,80,2013-01-06 14:53:00
6:53 AM,32.0,28.9,88,29.25,10.0,NNE,6.9,-,N/A,,Scattered Clouds,30,2013-01-06 15:53:00
7:53 AM,36.0,28.0,73,29.24,10.0,ESE,6.9,-,N/A,,Scattered Clouds,110,2013-01-06 16:53:00
8:53 AM,36.0,27.0,70,29.21,10.0,ENE,5.8,-,N/A,,Clear,60,2013-01-06 17:53:00
9:53 AM,37.0,30.0,76,29.20,10.0,Calm,Calm,-,N/A,,Overcast,0,2013-01-06 18:53:00
10:53 AM,33.1,30.0,89,29.20,9.0,NE,3.5,-,N/A,,Overcast,40,2013-01-06 19:53:00
11:53 AM,37.0,30.9,79,29.19,10.0,East,10.4,-,N/A,,Overcast,90,2013-01-06 20:53:00
12:15 PM,35.6,30.2,81,29.18,10.0,East,6.9,-,N/A,,Overcast,90,2013-01-06 21:15:00
12:53 PM,37.0,28.9,73,29.16,10.0,East,5.8,-,N/A,,Mostly Cloudy,100,2013-01-06 21:53:00
1:53 PM,36.0,28.9,76,29.12,10.0,East,10.4,17.3,N/A,,Mostly Cloudy,100,2013-01-06 22:53:00
2:53 PM,37.0,27.0,67,29.08,10.0,ENE,13.8,-,N/A,,Overcast,60,2013-01-06 23:53:00
3:53 PM,37.0,27.0,67,29.05,10.0,East,10.4,-,N/A,,Overcast,100,2013-01-07 00:53:00
4:53 PM,37.0,28.9,73,29.03,10.0,East,9.2,-,0.00,,Overcast,100,2013-01-07 01:53:00
5:15 PM,35.6,28.4,75,29.03,7.0,East,11.5,18.4,0.00,Snow,Light Snow,90,2013-01-07 02:15:00
5:35 PM,35.6,30.2,81,29.02,2.0,ENE,10.4,-,0.00,Snow,Light Snow,70,2013-01-07 02:35:00
5:41 PM,33.8,30.2,87,29.02,4.0,East,12.7,-,0.01,Snow,Light Snow,80,2013-01-07 02:41:00
5:53 PM,34.0,30.9,89,29.02,4.0,East,11.5,-,0.01,Snow,Light Snow,80,2013-01-07 02:53:00
6:00 PM,33.8,30.2,87,29.00,1.8,ENE,10.4,-,0.02,Snow,Light Snow,70,2013-01-07 03:00:00
6:12 PM,33.8,30.2,87,28.99,3.0,NE,8.1,-,0.02,Snow,Light Snow,40,2013-01-07 03:12:00
6:29 PM,33.8,30.2,87,28.98,3.0,NE,11.5,-,0.04,Snow,Light Snow,50,2013-01-07 03:29:00
6:53 PM,34.0,30.9,89,28.97,8.0,ENE,11.5,-,0.04,Snow,Light Snow,60,2013-01-07 03:53:00
7:02 PM,33.8,30.2,87,28.96,9.0,ENE,11.5,-,0.00,,Overcast,60,2013-01-07 04:02:00
7:53 PM,36.0,28.9,76,28.95,10.0,NNE,8.1,-,0.00,,Mostly Cloudy,30,2013-01-07 04:53:00
8:53 PM,37.0,28.9,73,28.94,10.0,East,13.8,-,N/A,,Overcast,90,2013-01-07 05:53:00
9:10 PM,35.6,30.2,81,28.94,10.0,East,12.7,-,N/A,,Overcast,80,2013-01-07 06:10:00
9:21 PM,35.6,30.2,81,28.94,10.0,ENE,12.7,-,N/A,,Overcast,70,2013-01-07 06:21:00
9:53 PM,36.0,30.0,79,28.95,10.0,ENE,15.0,-,N/A,,Overcast,70,2013-01-07 06:53:00
10:07 PM,35.6,30.2,81,28.95,7.0,ENE,16.1,-,0.00,Snow,Light Snow,70,2013-01-07 07:07:00
10:53 PM,35.1,33.1,92,28.94,10.0,NE,9.2,-,0.01,,Mostly Cloudy,40,2013-01-07 07:53:00
11:49 PM,33.8,30.2,87,28.94,10.0,ENE,15.0,-,0.01,,Mostly Cloudy,60,2013-01-07 08:49:00
11:53 PM,34.0,30.9,89,28.95,10.0,NE,11.5,-,0.01,,Scattered Clouds,50,2013-01-07 08:53:00